Home   Weather   Yuzhno-Sakhalinsk   Past weeks

Flag for Russia Past Weather in Yuzhno-Sakhalinsk, Russia — Yesterday and Last 2 Weeks

Now
41 °F

Passing clouds.


Feels Like: 34 °F
Forecast: 28 / 52 °F
Wind: 13 mph from South

Location: Yuzhno Airport-Sakhalinsk

Current Time: Apr 24, 2017 at 2:50:44 pm

Latest Report: Apr 24, 2017 at 2:00 pm


Visibility: N/A

Pressure: 30.27 "Hg

Humidity: 66%

Dew Point: 30 °F

Location of Yuzhno-SakhalinskLocation

Past Weather in Yuzhno-Sakhalinsk — Graph

°F

Yuzhno-Sakhalinsk Temperature Yesterday

Maximum temperature yesterday: 41 °F (at 4:30 pm)
Minimum temperature yesterday: 30 °F (at 5:00 am)
Average temperature yesterday: 36 °F

High & Low Weather Summary for the Past Weeks

 TemperatureHumidityPressure
High54 °F (Apr 16, 3:30 pm)100% (Apr 12, 6:30 am)30.27 "Hg (Apr 12, 6:30 am)
Low21 °F (Apr 22, 6:30 am)29% (Apr 17, 5:30 pm)29.24 "Hg (Apr 12, 2:30 pm)
Average36 °F73%29.69 "Hg
* Reported Apr 9 1:00 pm — Apr 24 1:30 pm, Yuzhno-Sakhalinsk, Weather by CustomWeather, © 2017

Note: Actual official high and low records may vary slightly from our data, if they occured in-between our weather recording intervals... More about our weather records

Advertising

Yuzhno-Sakhalinsk Weather History for the Previous 24 Hours

Scroll right to see more
 ConditionsComfort  
Time TempWeatherWind HumidityBarometerVisibility
1:30 pm
Mon, Apr 24
41 °FPassing clouds.13 mph66%30.24 "HgN/A
1:00 pm43 °FPassing clouds.10 mph66%30.27 "HgN/A
12:30 pm43 °FPassing clouds.8 mph66%30.27 "HgN/A
12:00 pm43 °FPassing clouds.8 mph66%30.27 "HgN/A
11:30 am41 °FPassing clouds.6 mph70%30.27 "HgN/A
11:00 am41 °FPassing clouds.6 mph70%30.27 "HgN/A
10:30 am39 °FPassing clouds.3 mph75%30.27 "HgN/A
10:00 am37 °FPassing clouds.3 mph81%30.27 "HgN/A
9:30 am37 °FPassing clouds.No wind81%30.27 "HgN/A
9:00 am34 °FPassing clouds.1 mph93%30.27 "HgN/A
8:30 am34 °FClear.No wind93%30.27 "HgN/A
7:30 am28 °FClear.No wind100%30.27 "HgN/A
7:00 am25 °FClear.No wind100%30.27 "HgN/A
6:30 am25 °FClear.No wind100%30.27 "HgN/A
6:00 am27 °FClear.No wind100%30.24 "HgN/A
5:00 am28 °FClear.No wind93%30.24 "HgN/A
4:00 am30 °FClear.No wind93%30.24 "HgN/A
3:00 am32 °FClear.3 mph93%30.24 "HgN/A
2:00 am32 °FClear.No wind87%30.21 "HgN/A
1:00 am32 °FClear.No wind87%30.21 "HgN/A
12:00 am34 °FClear.No wind87%30.21 "HgN/A
11:00 pm
Sun, Apr 23
34 °FClear.No wind81%30.21 "HgN/A
10:00 pm36 °FPassing clouds.1 mph75%30.18 "HgN/A
9:30 pm36 °FPassing clouds.1 mph75%30.18 "HgN/A
9:00 pm36 °FPassing clouds.No wind75%30.18 "HgN/A
8:30 pm37 °FPassing clouds.1 mph70%30.15 "HgN/A
8:00 pm37 °FPartly sunny.No wind70%30.15 "HgN/A
7:30 pm37 °FPartly sunny.3 mph70%30.15 "HgN/A
6:30 pm39 °FPartly sunny.6 mph70%30.12 "HgN/A
6:00 pm39 °FClear.6 mph70%30.12 "HgN/A
5:30 pm39 °FPartly sunny.6 mph70%30.12 "HgN/A
5:00 pm41 °FPartly sunny.6 mph61%30.09 "HgN/A
4:30 pm41 °FPartly sunny.8 mph61%30.09 "HgN/A
4:00 pm39 °FPartly sunny.8 mph61%30.09 "HgN/A
3:30 pm39 °FPartly sunny.8 mph65%30.09 "HgN/A
3:00 pm39 °FPartly sunny.6 mph65%30.09 "HgN/A
2:30 pm39 °FPartly sunny.6 mph61%30.09 "HgN/A
Weather by CustomWeather, © 2017

See weather overviewHow to use our weather pages